Location: Izdebno
(52.6670°N, 16.2170°E)
Time: 08:56:08
(UTC+02:00)

Transit 4A - Pass Details

Date: 25 February 2024
Orbit: 866 x 976 km, 66.8° (Epoch: 19 September)

Event Time Altitude Azimuth Distance (km) Brightness Sun altitude
Rises 23:46:28 0° 163° (SSE) 3,594 - -46.1°
Reaches altitude 10° 23:49:50 10° 146° (SE) 2,634 - -46.2°
Maximum altitude 23:53:45 18° 106° (ESE) 2,101 - -46.2°
Drops below altitude 10° 23:57:36 10° 65° (ENE) 2,595 - -46.3°
Exits shadow 23:59:47 - 52° (NE) 3,186 11.0 -46.3°
Sets 00:00:52 0° 48° (NE) 3,520 11.3 -46.3°
